TimeEST,TemperatureF,Dew PointF,Humidity,Sea Level PressureIn,VisibilityMPH,Wind Direction,Wind SpeedMPH,Gust SpeedMPH,PrecipitationIn,Events,Conditions,WindDirDegrees,DateUTC
12:45 AM,44.6,41.0,87,29.96,1.8,Calm,Calm,-,N/A,,Clear,0,2012-12-09 05:45:00
12:53 AM,44.1,41.0,89,29.95,1.0,West,3.5,-,N/A,,Clear,280,2012-12-09 05:53:00
12:57 AM,44.6,42.8,93,29.96,3.0,West,3.5,-,N/A,,Clear,280,2012-12-09 05:57:00
1:53 AM,43.0,39.9,89,29.97,4.0,West,3.5,-,N/A,,Clear,270,2012-12-09 06:53:00
2:53 AM,44.1,41.0,89,30.00,9.0,West,6.9,-,N/A,,Clear,270,2012-12-09 07:53:00
3:53 AM,43.0,39.9,89,30.02,8.0,WSW,5.8,-,N/A,,Clear,250,2012-12-09 08:53:00
4:53 AM,42.1,39.9,92,30.05,10.0,West,4.6,-,N/A,,Clear,280,2012-12-09 09:53:00
5:53 AM,41.0,37.9,89,30.10,10.0,West,5.8,-,N/A,,Clear,270,2012-12-09 10:53:00
6:53 AM,42.1,37.0,82,30.14,10.0,WNW,6.9,-,N/A,,Clear,300,2012-12-09 11:53:00
7:53 AM,41.0,36.0,82,30.18,10.0,NW,3.5,-,N/A,,Mostly Cloudy,310,2012-12-09 12:53:00
8:53 AM,44.1,37.0,76,30.21,10.0,Calm,Calm,-,N/A,,Mostly Cloudy,0,2012-12-09 13:53:00
9:53 AM,44.1,34.0,68,30.24,10.0,NNW,15.0,19.6,N/A,,Mostly Cloudy,330,2012-12-09 14:53:00
10:53 AM,44.1,33.1,65,30.23,10.0,North,9.2,-,N/A,,Clear,350,2012-12-09 15:53:00
11:53 AM,44.1,30.0,58,30.22,10.0,North,8.1,-,N/A,,Clear,350,2012-12-09 16:53:00
12:53 PM,44.1,30.9,60,30.22,10.0,NNW,8.1,-,N/A,,Clear,330,2012-12-09 17:53:00
1:53 PM,44.1,30.0,58,30.23,10.0,North,4.6,-,N/A,,Mostly Cloudy,350,2012-12-09 18:53:00
2:53 PM,45.0,30.0,56,30.25,10.0,NNW,3.5,-,N/A,,Clear,340,2012-12-09 19:53:00
3:53 PM,43.0,28.9,58,30.25,10.0,Calm,Calm,-,N/A,,Clear,0,2012-12-09 20:53:00
4:53 PM,39.0,30.0,70,30.26,10.0,Calm,Calm,-,N/A,,Clear,0,2012-12-09 21:53:00
5:53 PM,37.9,30.9,76,30.27,10.0,Calm,Calm,-,N/A,,Partly Cloudy,0,2012-12-09 22:53:00
6:53 PM,37.0,32.0,82,30.28,10.0,North,3.5,-,N/A,,Overcast,10,2012-12-09 23:53:00
7:53 PM,39.9,32.0,73,30.26,10.0,ENE,3.5,-,N/A,,Overcast,60,2012-12-10 00:53:00
8:53 PM,42.1,30.9,65,30.24,10.0,ENE,4.6,-,N/A,,Overcast,70,2012-12-10 01:53:00
9:53 PM,42.1,35.1,76,30.22,10.0,East,4.6,-,0.02,Rain,Light Rain,80,2012-12-10 02:53:00
10:53 PM,43.0,37.0,80,30.19,10.0,ESE,8.1,-,0.01,Rain,Light Rain,110,2012-12-10 03:53:00
11:15 PM,42.8,37.4,81,30.19,6.0,ESE,8.1,-,0.02,Rain,Light Rain,110,2012-12-10 04:15:00
11:30 PM,42.8,37.4,81,30.18,7.0,ESE,9.2,-,0.03,Rain,Light Rain,110,2012-12-10 04:30:00
11:53 PM,44.1,39.0,82,30.17,6.0,ESE,6.9,-,0.06,Rain,Light Rain,120,2012-12-10 04:53:00